Jackson, KY

3:21 AM EST on February 20, 2018 (GMT -0500)
Carroll

Weather History for KJKL - September, 2014

Change the Weather History Date:

Saturday, September 6, 2014

  Actual Average Record
Temperature  
Mean Temperature 78 °F 71 °F  
Max Temperature 87 °F 81 °F 95 °F (1998)
Min Temperature 68 °F 62 °F 47 °F (1984)
Degree Days  
Heating Degree Days 0 0  
Month to date heating degree days 0 0  
Since 1 July heating degree days 3 2  
Cooling Degree Days 13 7  
Month to date cooling degree days 71 44  
Year to date cooling degree days 1072 1022  
Growing Degree Days 27 (Base 50)    
Moisture  
Dew Point 69 °F    
Average Humidity 83    
Maximum Humidity 100    
Minimum Humidity 65    
Precipitation  
Precipitation 0.09 in 0.11 in 0.55 in (2011)
Month to date precipitation 1.48 0.64  
Year to date precipitation 39.78 34.19  
Snow  
Snow 0.00 in 0.00 in - ()
Month to date snowfall 0.0 0.0  
Since 1 July snowfall 0.0 0.0  
Since 1 September snowfall 0.0 0.0  
Snow Depth 0.00 in    
Sea Level Pressure  
Sea Level Pressure 30.06 in    
Wind  
Wind Speed 1 mph (West)    
Max Wind Speed 18 mph    
Max Gust Speed 33 mph    
Visibility 5 miles    
Events Fog , Rain , Thunderstorm    
T = Trace of Precipitation, MM = Missing Value Source: NWS Daily Summary

Daily Weather History Graph

Daily Weather History Graph

Search for Another Location

Airport or City:

Trip Planner

Search our weather history database for the weather conditions in past years. The results will help you decide how hot, cold, wet, or windy it might be!

Date:

Astronomy

Sep. 06, 2014 Rise Set
Actual Time 7:07 AM EDT 7:54 PM EDT
Civil Twilight 6:41 AM EDT 8:21 PM EDT
Nautical Twilight 6:09 AM EDT 8:52 PM EDT
Astronomical Twilight 5:37 AM EDT 9:24 PM EDT
Moon 6:08 PM EDT (9/6) 4:10 AM EDT (9/6)
Length of Visible Light 13h 40m
Length of Day
12h 47m
Waxing Gibbous, 91% of the Moon is Illuminated
Sep 6
Waxing Gibbous
Sep 8
Full
Sep 15
Last Quarter
Sep 24
New
Oct 1
First Quarter

Hourly Weather History & Observations

Time (EDT) Temp. Heat Index Dew Point Humidity Pressure Visibility Wind Dir Wind Speed Gust Speed Precip Events Conditions
12:53 AM 73.0 °F - 71.1 °F 93% 30.07 in 9.0 mi Calm Calm - N/A   Clear
1:53 AM 73.0 °F - 69.1 °F 87% 30.07 in 10.0 mi Calm Calm - N/A   Clear
2:53 AM 72.0 °F - 69.1 °F 91% 30.06 in 10.0 mi Calm Calm - N/A   Clear
5:53 AM 71.1 °F - 69.1 °F 93% 30.04 in 9.0 mi Calm Calm - N/A   Partly Cloudy
6:07 AM 70.0 °F - 68.0 °F 93% 30.08 in 2.5 mi Calm Calm - N/A   Partly Cloudy
6:25 AM 71.1 °F - 68.0 °F 90% 30.08 in 7.0 mi Calm Calm - N/A   Partly Cloudy
6:53 AM 71.1 °F - 69.1 °F 93% 30.04 in 9.0 mi Calm Calm - N/A   Clear
7:02 AM 70.0 °F - 68.0 °F 93% 30.09 in 2.5 mi Calm Calm - N/A   Partly Cloudy
7:04 AM 70.0 °F - 68.0 °F 93% 30.09 in 1.5 mi Calm Calm - N/A   Scattered Clouds
7:13 AM 70.0 °F - 68.0 °F 93% 30.09 in 2.5 mi Calm Calm - N/A   Scattered Clouds
7:20 AM 70.0 °F - 68.0 °F 93% 30.09 in 5.0 mi Calm Calm - N/A   Partly Cloudy
7:53 AM 71.1 °F - 69.1 °F 93% 30.06 in 7.0 mi Calm Calm - N/A   Clear
8:53 AM 73.0 °F - 70.0 °F 90% 30.05 in 10.0 mi Calm Calm - N/A   Clear
9:28 AM 73.9 °F - 70.0 °F 87% 30.09 in 10.0 mi Variable 3.5 mph - N/A   Partly Cloudy
9:53 AM 75.2 °F - 71.6 °F 89% 30.09 in 10.0 mi Calm Calm - N/A   Scattered Clouds
10:53 AM 79.0 °F - 72.0 °F 79% 30.04 in 10.0 mi SE 3.5 mph - N/A   Partly Cloudy
11:53 AM 81.0 °F 85.2 °F 72.0 °F 74% 30.04 in 10.0 mi SSE 4.6 mph - N/A   Clear
12:53 PM 84.9 °F 91.4 °F 73.0 °F 67% 30.02 in 10.0 mi Calm Calm - N/A   Mostly Cloudy
1:07 PM 84.2 °F 90.9 °F 73.4 °F 70% 30.06 in 10.0 mi West 5.8 mph - N/A   Mostly Cloudy
1:53 PM 86.0 °F 93.0 °F 73.0 °F 65% 29.99 in 10.0 mi Variable 4.6 mph - N/A   Partly Cloudy
2:09 PM 86.0 °F 91.5 °F 71.1 °F 61% 30.03 in 10.0 mi Calm Calm - N/A Thunderstorm Clear
2:50 PM 71.6 °F - 64.4 °F 78% 30.04 in 9.0 mi NW 16.1 mph 33.4 mph 0.00 in Rain , Thunderstorm Light Thunderstorms and Rain
2:53 PM 71.1 °F - 64.9 °F 81% 30.01 in 7.0 mi WNW 10.4 mph 33.4 mph 0.01 in Rain , Thunderstorm Thunderstorms and Rain
3:15 PM 69.1 °F - 64.9 °F 87% 30.04 in 2.5 mi Variable 5.8 mph - 0.03 in Rain , Thunderstorm Thunderstorms and Rain
3:25 PM 69.1 °F - 64.9 °F 87% 30.05 in 3.0 mi Calm Calm - 0.06 in Rain , Thunderstorm Thunderstorms and Rain
3:34 PM 69.1 °F - 66.0 °F 90% 30.05 in 7.0 mi Calm Calm - 0.06 in Rain , Thunderstorm Light Rain
3:53 PM 68.0 °F - 64.9 °F 90% 30.02 in 4.0 mi Calm Calm - 0.07 in Rain , Thunderstorm Light Rain
4:06 PM 69.1 °F - 66.9 °F 93% 30.06 in 1.8 mi Calm Calm - 0.00 in Thunderstorm Scattered Clouds
4:09 PM 68.0 °F - 66.9 °F 96% 30.06 in 1.5 mi Calm Calm - 0.00 in Thunderstorm Scattered Clouds
4:15 PM 68.0 °F - 66.0 °F 93% 30.06 in 3.0 mi Calm Calm - 0.00 in Thunderstorm Scattered Clouds
4:22 PM 69.1 °F - 66.0 °F 90% 30.06 in 8.0 mi Calm Calm - 0.00 in Thunderstorm Partly Cloudy
4:30 PM 69.1 °F - 66.0 °F 90% 30.06 in 9.0 mi SSW 3.5 mph - 0.00 in   Partly Cloudy
4:53 PM 70.0 °F - 66.9 °F 90% 30.01 in 9.0 mi Calm Calm - 0.00 in   Partly Cloudy
5:53 PM 73.9 °F - 70.0 °F 87% 30.01 in 9.0 mi Variable 3.5 mph - N/A   Clear
6:00 PM 71.6 °F - 69.8 °F 94% 30.04 in 8.0 mi Variable 3.5 mph - N/A   Scattered Clouds
6:09 PM 72.0 °F - 68.0 °F 87% 30.04 in 8.0 mi Variable 3.5 mph - N/A   Mostly Cloudy
6:19 PM 72.0 °F - 69.1 °F 91% 30.04 in 8.0 mi Calm Calm - 0.00 in Rain Light Rain
6:53 PM 72.0 °F - 68.0 °F 87% 30.00 in 9.0 mi Calm Calm - 0.00 in   Partly Cloudy
7:50 PM 71.6 °F - 69.8 °F 94% 30.04 in 1.8 mi Calm Calm - N/A   Mostly Cloudy
7:53 PM 71.1 °F - 69.1 °F 93% 30.01 in 1.2 mi Calm Calm - N/A   Mostly Cloudy
8:05 PM 70.0 °F - 68.0 °F 93% 30.04 in 3.0 mi Calm Calm - N/A   Mostly Cloudy
8:19 PM 70.0 °F - 68.0 °F 93% 30.05 in 4.0 mi Calm Calm - N/A   Partly Cloudy
8:36 PM 70.0 °F - 68.0 °F 93% 30.06 in 1.8 mi Calm Calm - N/A   Scattered Clouds
8:39 PM 69.8 °F - 68.0 °F 94% 30.06 in 1.0 mi Calm Calm - N/A   Mist
8:53 PM 69.1 °F - 68.0 °F 96% 30.03 in 1.2 mi Calm Calm - N/A   Scattered Clouds
9:01 PM 70.0 °F - 68.0 °F 93% 30.07 in 1.8 mi WNW 3.5 mph - N/A Thunderstorm Scattered Clouds
9:05 PM 70.0 °F - 68.0 °F 93% 30.08 in 1.0 mi West 4.6 mph - N/A Thunderstorm Mist
9:09 PM 69.1 °F - 68.0 °F 96% 30.08 in 0.5 mi WSW 3.5 mph - N/A Fog , Thunderstorm Fog
9:13 PM 70.0 °F - 68.0 °F 93% 30.08 in 0.5 mi Calm Calm - N/A Fog Fog
9:22 PM 70.0 °F - 69.1 °F 97% 30.08 in 1.5 mi Calm Calm - N/A   Mostly Cloudy
9:36 PM 70.0 °F - 69.1 °F 97% 30.09 in 0.8 mi Calm Calm - 0.01 in Rain Light Rain
9:40 PM 70.0 °F - 69.1 °F 97% 30.09 in 1.2 mi Calm Calm - 0.01 in Rain Light Rain
9:48 PM 69.8 °F - 69.8 °F 100% 30.09 in 0.5 mi Calm Calm - 0.01 in Fog , Rain Light Rain
9:53 PM 70.0 °F - 69.1 °F 97% 30.06 in 1.0 mi Calm Calm - 0.01 in   Overcast
10:06 PM 70.0 °F - 69.1 °F 97% 30.10 in 2.0 mi Calm Calm - N/A   Overcast
10:11 PM 70.0 °F - 69.1 °F 97% 30.10 in 3.0 mi Calm Calm - N/A   Overcast
10:19 PM 71.1 °F - 68.0 °F 90% 30.10 in 2.0 mi Variable 3.5 mph - N/A   Overcast
10:27 PM 71.1 °F - 69.1 °F 93% 30.10 in 6.0 mi NNW 4.6 mph - N/A   Overcast
10:38 PM 71.1 °F - 69.1 °F 93% 30.10 in 5.0 mi Calm Calm - N/A   Overcast
10:45 PM 71.1 °F - 69.1 °F 93% 30.11 in 5.0 mi Calm Calm - N/A   Overcast
10:53 PM 71.1 °F - 69.1 °F 93% 30.06 in 1.5 mi Calm Calm - N/A   Overcast
11:01 PM 70.0 °F - 69.1 °F 97% 30.10 in 3.0 mi Calm Calm - N/A   Overcast
11:18 PM 70.0 °F - 68.0 °F 93% 30.11 in 5.0 mi Calm Calm - N/A   Overcast
11:28 PM 70.0 °F - 68.0 °F 93% 30.11 in 6.0 mi Variable 3.5 mph - N/A   Overcast
11:39 PM 70.0 °F - 66.9 °F 90% 30.11 in 7.0 mi Calm Calm - N/A   Overcast
11:53 PM 69.1 °F - 66.9 °F 93% 30.07 in 7.0 mi Calm Calm - N/A   Overcast